K8ZAS Weather Reports


Display with metric or nautical units.
time (UTC)temp
F
wind
direction
speed
MPH
gust
MPH
rain 1hr
in
rain 24hr
in
rain mn
in
humidity
%
barometer
mb
20260504140523 44 121 0.0 2.0 0.00 0.00 0.00 60 1010.0
20260504130544 39 215 1.0 3.0 0.00 0.00 0.00 69 1009.2
20260504110526 37 206 0.0 2.0 0.00 0.00 0.00 72 1008.7
20260504100527 40 322 1.0 2.0 0.00 0.00 0.00 65 1008.8
20260504081517 42 211 0.0 2.0 0.00 0.00 0.00 63 1009.1
20260504080537 41 0.0 0.0 0.00 0.00 0.00 64 1009.1
20260504050518 52 275 0.0 1.0 0.00 0.00 0.00 43 1009.3
20260504045538 52 0.0 0.0 0.00 0.00 0.00 45 1009.4
20260504044518 52 0.0 0.0 0.00 0.00 0.00 47 1009.5
20260504043518 53 318 0.0 1.0 0.00 0.00 0.00 48 1009.5
20260504042516 55 220 0.0 3.0 0.00 0.00 0.00 41 1009.4
20260504041517 55 107 0.0 2.0 0.00 0.00 0.00 40 1009.3
20260504040519 56 0.0 0.0 0.00 0.00 0.00 39 1009.2
20260504035519 58 0.0 0.0 0.00 0.00 0.00 38 1009.1
20260504034520 58 0.0 0.0 0.00 0.00 0.00 36 1009.0
20260504033517 59 349 2.0 4.0 0.00 0.00 0.00 34 1009.0
20260504032518 60 7 1.0 3.0 0.00 0.00 0.00 34 1008.8
20260504031517 61 349 3.0 5.0 0.00 0.00 0.00 32 1008.6
20260504030517 62 21 1.0 3.0 0.00 0.00 0.00 31 1008.5
20260504025519 63 22 2.0 5.0 0.00 0.00 0.00 31 1008.4
20260504024519 64 2 0.0 4.0 0.00 0.00 0.00 29 1008.3
20260504023538 64 34 2.0 6.0 0.00 0.00 0.00 28 1008.1
20260504022518 65 23 2.0 6.0 0.00 0.00 0.00 28 1008.0
20260504021518 66 357 2.0 9.0 0.00 0.00 0.00 27 1007.9
20260504020518 68 25 2.0 9.0 0.00 0.00 0.00 24 1007.7
20260504015518 69 24 2.0 7.0 0.00 0.00 0.00 23 1007.6
20260504014519 70 33 2.0 3.0 0.00 0.00 0.00 22 1007.5
20260504013539 71 25 2.0 6.0 0.00 0.00 0.00 21 1007.4
20260504012519 71 11 2.0 6.0 0.00 0.00 0.00 18 1007.3
20260504011519 71 19 2.0 5.0 0.00 0.00 0.00 18 1007.4
20260504010520 71 28 3.0 7.0 0.00 0.00 0.00 18 1007.4
20260504005517 72 48 2.0 6.0 0.00 0.00 0.00 18 1007.4
20260504004517 72 45 3.0 9.0 0.00 0.00 0.00 18 1007.4
20260504003520 72 31 2.0 6.0 0.00 0.00 0.00 18 1007.5
20260504002520 73 22 3.0 6.0 0.00 0.00 0.00 18 1007.5
20260504001518 73 5 3.0 11.0 0.00 0.00 0.00 17 1007.6
20260504000538 74 9 3.0 9.0 0.00 0.00 0.00 18 1007.7
20260503235518 74 44 4.0 9.0 0.00 0.00 0.00 18 1007.6
20260503234518 75 351 2.0 6.0 0.00 0.00 0.00 15 1007.4
20260503233518 75 345 3.0 8.0 0.00 0.00 0.00 15 1007.5
20260503232519 75 321 3.0 7.0 0.00 0.00 0.00 16 1007.7
20260503231518 74 91 1.0 6.0 0.00 0.00 0.00 17 1007.8
20260503230519 74 42 2.0 8.0 0.00 0.00 0.00 17 1007.9
20260503225519 74 43 3.0 8.0 0.00 0.00 0.00 17 1008.0
20260503224519 74 82 2.0 6.0 0.00 0.00 0.00 18 1008.1
20260503223519 72 34 3.0 9.0 0.00 0.00 0.00 18 1008.2
20260503222519 72 43 1.0 6.0 0.00 0.00 0.00 18 1008.3
20260503221600 71 55 2.0 8.0 0.00 0.00 0.00 18 1008.5
20260503220520 71 52 3.0 9.0 0.00 0.00 0.00 18 1008.8
20260503215537 72 29 3.0 8.0 0.00 0.00 0.00 18 1009.0
20260503214517 72 19 2.0 5.0 0.00 0.00 0.00 18 1009.1
20260503213517 72 42 4.0 7.0 0.00 0.00 0.00 18 1009.2
20260503212521 73 44 4.0 9.0 0.00 0.00 0.00 18 1009.2
20260503211518 72 332 2.0 6.0 0.00 0.00 0.00 18 1009.4
20260503210518 73 241 1.0 7.0 0.00 0.00 0.00 18 1009.6
20260503205518 75 73 2.0 7.0 0.00 0.00 0.00 17 1009.7
20260503204518 73 48 1.0 5.0 0.00 0.00 0.00 18 1009.9
20260503203518 74 26 4.0 9.0 0.00 0.00 0.00 18 1010.1
20260503202519 74 353 2.0 8.0 0.00 0.00 0.00 18 1010.3
20260503201519 74 283 3.0 7.0 0.00 0.00 0.00 18 1010.4
20260503200559 74 19 2.0 5.0 0.00 0.00 0.00 18 1010.6
20260503195519 73 303 2.0 6.0 0.00 0.00 0.00 19 1010.8
20260503194519 73 36 3.0 9.0 0.00 0.00 0.00 19 1011.0
20260503193520 73 64 2.0 7.0 0.00 0.00 0.00 20 1011.2
20260503192517 71 330 3.0 8.0 0.00 0.00 0.00 20 1011.4
20260503191517 71 19 2.0 9.0 0.00 0.00 0.00 21 1011.6
20260503190540 71 1 1.0 5.0 0.00 0.00 0.00 21 1011.8
20260503185520 71 20 4.0 9.0 0.00 0.00 0.00 22 1012.1
20260503184517 70 10 2.0 8.0 0.00 0.00 0.00 23 1012.2
20260503183518 69 45 2.0 7.0 0.00 0.00 0.00 24 1012.4
20260503182518 69 341 2.0 7.0 0.00 0.00 0.00 24 1012.6
20260503181518 68 27 2.0 7.0 0.00 0.00 0.00 26 1012.9
20260503180518 68 13 2.0 6.0 0.00 0.00 0.00 26 1013.0
20260503175518 67 42 3.0 7.0 0.00 0.00 0.00 27 1013.2
20260503174519 67 38 4.0 9.0 0.00 0.00 0.00 27 1013.4
20260503173519 66 6 2.0 6.0 0.00 0.00 0.00 27 1013.6
20260503172539 64 28 2.0 6.0 0.00 0.00 0.00 30 1013.8
20260503171519 64 34 2.0 7.0 0.00 0.00 0.00 31 1013.9
20260503170519 65 335 2.0 7.0 0.00 0.00 0.00 32 1014.1
20260503150538 55 30 1.0 3.0 0.00 0.00 0.00 43 1015.5